www.pogodaiklimat.ru

Погода и климат >> Архив погоды >> Швейцария >> Ле-Бувре


ПОГОДА в Ле-Бувре

  • Прогноз погоды в Ле-Бувре
  • Монитор погоды в Ле-Бувре

АРХИВ ПОГОДЫ в Ле-Бувре

Время (UTC), дата Ветер
(напр.,м/с)
 
Видим.   Явления Облачность Т
(С)
Тd
(С)
f
(%)
Тe
(С)
Тes
(С)
Комфортность P
(гПа)
Po
(гПа)
Тmin
(С)
Tmax
(С)
R
(мм)
R24
(мм)
S
(см)
01 13.08 З 4
{19}
н/о н/о +16.6 +13.0 79 +16 +16 1020.8 977.0
02 13.08 ЮВ 2
{4}
н/о н/о +16.4 +12.9 80 +17 +17 1019.9 976.2
03 13.08 Ю 2
{19}
н/о н/о +15.2 +13.0 87 +15 +15 1020.0 976.1
04 13.08 ЮВ 2
{3}
н/о н/о +14.9 +13.3 90 +15 +15 1020.1 976.1
05 13.08 Ю 1
{2}
н/о н/о +15.1 +13.6 91 +16 +16 1020.6 976.6
06 13.08 Ю 1
{19}
н/о н/о +16.7 +13.5 81 +18 +18 1020.6 976.9 +14.8
07 13.08 СЗ 1
{3}
н/о н/о +17.4 +11.7 69 +19 +19 1020.5 976.9
08 13.08 З 4
{7}
н/о н/о +18.0 +10.8 63 +18 +18 1020.4 976.9
09 13.08 СЗ 4
{7}
н/о н/о +18.3 +10.4 60 +18 +18 1020.5 977.0
10 13.08 З 4
{5}
н/о н/о +18.4 +8.9 54 +19 +19 1019.9 976.5
11 13.08 З 5
{6}
н/о н/о +19.3 +9.8 54 +20 +20 1019.2 975.9
12 13.08 З 4
{7}
н/о н/о +19.8 +8.8 49 +21 +21 комфорт 1018.6 975.4
13 13.08 З 5
{6}
н/о н/о +20.4 +9.5 50 +22 +22 комфорт 1018.1 975.0
14 13.08 З 4
{6}
н/о н/о +20.7 +10.4 52 +23 +23 комфорт 1017.8 974.8
15 13.08 З 4
{6}
н/о н/о +21.2 +9.4 47 +23 +23 комфорт 1017.6 974.7
16 13.08 З 4
{6}
н/о н/о +21.5 +9.4 46 +23 +23 комфорт 1017.4 974.5
17 13.08 З 4
{9}
н/о н/о +21.2 +10.7 51 +23 +23 комфорт 1017.4 974.5
18 13.08 С 5
{9}
н/о н/о +21.0 +10.6 51 +23 +23 комфорт 1017.9 974.9 +21.5
19 13.08 С 8
{11}
н/о н/о +20.5 +11.2 55 +22 +22 комфорт 1018.2 975.2
20 13.08 З 7
{10}
н/о н/о +19.7 +10.6 56 +21 +21 комфорт 1018.9 975.7
21 13.08 З 6
{12}
н/о н/о +19.3 +10.5 57 +20 +20 1019.4 976.1
22 13.08 С 6
{8}
н/о н/о +18.6 +10.3 58 +19 +19 1019.6 976.2
23 13.08 СЗ 4
{8}
н/о н/о +18.4 +10.3 59 +19 +19 1019.9 976.5
00 14.08 СЗ 3
{12}
н/о н/о +18.0 +10.2 60 +18 +18 1019.9 976.4
01 14.08 ЮВ 2
{3}
н/о н/о +15.7 +10.1 69 +16 +16 1020.2 976.3
02 14.08 ЮВ 2
{2}
н/о н/о +15.0 +10.5 74 +15 +15 1020.3 976.3
03 14.08 ЮВ 3
{4}
н/о н/о +13.8 +10.0 78 +13 +13 1020.3 976.1
04 14.08 ЮВ 2
{4}
н/о н/о +13.6 +10.1 79 +13 +13 1020.0 975.8
05 14.08 ЮВ 2
{4}
н/о н/о +13.4 +10.2 81 +13 +13 1020.3 976.1
06 14.08 ЮВ 2
{4}
н/о н/о +14.3 +10.2 76 +14 +14 1020.4 976.3 +13.4
07 14.08 ЮВ 2
{4}
н/о н/о +15.7 +10.3 70 +16 +16 1020.4 976.5
08 14.08 С 1
{3}
н/о н/о +16.9 +9.8 63 +18 +18 1020.4 976.7
09 14.08 СЗ 2
{4}
н/о н/о +17.4 +11.0 66 +18 +18 1020.3 976.7
10 14.08 З 4
{4}
н/о н/о +18.6 +10.9 61 +19 +19 1019.7 976.3
11 14.08 З 4
{6}
н/о н/о +19.8 +9.4 51 +21 +21 комфорт 1019.1 975.9
12 14.08 З 3
{6}
н/о н/о +20.5 +9.2 48 +22 +22 комфорт 1018.1 975.1
13 14.08 З 4
{5}
н/о н/о +21.2 +8.9 45 +22 +22 комфорт 1017.5 974.6
14 14.08 З 5
{6}
н/о н/о +21.9 +9.0 44 +23 +23 комфорт 1017.0 974.2
15 14.08 З 4
{6}
н/о н/о +22.4 +9.0 42 +24 +24 комфорт 1016.5 973.8
16 14.08 З 4
{6}
н/о н/о +22.5 +10.0 45 +24 +24 комфорт 1016.4 973.7
17 14.08 З 3
{5}
н/о н/о +22.6 +10.2 45 +24 +24 комфорт 1015.9 973.3
18 14.08 ЮЗ 2
{6}
н/о н/о +22.1 +11.1 50 +24 +24 комфорт 1016.0 973.3 +22.6
19 14.08 ЮВ 3
{3}
н/о н/о +19.6 +10.6 56 +21 +21 комфорт 1016.5 973.4
20 14.08 ЮВ 1
{3}
н/о н/о +18.0 +11.1 64 +19 +19 1017.5 974.1
21 14.08 ЮВ 2
{3}
н/о н/о +17.6 +10.9 65 +18 +18 1017.8 974.3
22 14.08 ЮВ 3
{4}
н/о н/о +17.5 +10.0 61 +18 +18 1017.6 974.1
23 14.08 ЮВ 2
{4}
н/о н/о +16.7 +10.7 68 +17 +17 1018.1 974.5
00 15.08 ЮВ 3
{4}
н/о н/о +16.5 +10.1 66 +16 +16 1018.1 974.4
01 15.08 ЮВ 2
{4}
н/о н/о +16.1 +10.6 70 +16 +16 1018.1 974.4
02 15.08 ЮВ 4
{5}
н/о н/о +16.6 +10.1 65 +16 +16 1017.4 973.8
03 15.08 ЮВ 3
{5}
н/о н/о +16.6 +10.4 67 +17 +17 1017.5 973.9
04 15.08 ЮВ 3
{5}
н/о н/о +16.6 +10.3 66 +17 +17 1016.9 973.3
05 15.08 ЮВ 3
{7}
н/о н/о +16.5 +10.0 65 +16 +16 1017.4 973.8
06 15.08 ЮВ 2
{7}
н/о н/о +17.0 +10.2 64 +17 +17 1017.3 973.8 +15.9
07 15.08 ЮВ 3
{5}
н/о н/о +18.1 +9.9 59 +18 +18 1017.4 974.0
08 15.08 ЮВ 1
{4}
н/о н/о +19.0 +10.4 57 +21 +21 комфорт 1017.2 974.0
09 15.08 СВ 1
{5}
н/о н/о +19.4 +12.2 63 +22 +22 комфорт 1017.2 974.0
10 15.08 З 1
{2}
н/о н/о +20.3 +11.8 58 +24 +24 комфорт 1016.8 973.8
11 15.08 СЗ 2
{3}
н/о н/о +20.6 +12.1 58 +23 +23 комфорт 1016.6 973.6
12 15.08 С 3
{5}
н/о н/о +21.3 +13.0 59 +24 +24 комфорт 1016.7 973.8
13 15.08 С 1
{3}
н/о н/о +21.3 +12.9 59 +24 +24 комфорт 1016.5 973.6
14 15.08 В 1
{2}
н/о н/о +21.8 +12.7 56 +24 +24 комфорт 1016.2 973.4
15 15.08 СЗ 12
{15}
н/о н/о +22.7 +14.9 61 +26 +26 жарко 1015.6 973.0
16 15.08 СЗ 12
{16}
н/о н/о +22.4 +13.9 59 +26 +26 жарко 1016.1 973.4
17 15.08 СЗ 10
{13}
н/о н/о +22.3 +13.7 58 +25 +25 комфорт 1016.7 974.0
18 15.08 СЗ 7
{16}
н/о н/о +21.9 +13.2 58 +25 +25 комфорт 1017.9 975.1 +23.0
19 15.08 З 6
{11}
н/о н/о +21.5 +12.9 58 +24 +24 комфорт 1018.5 975.6
20 15.08 СЗ 6
{8}
н/о н/о +21.2 +12.1 56 +23 +23 комфорт 1019.5 976.5
21 15.08 С 4
{11}
н/о н/о +20.9 +10.9 53 +23 +23 комфорт 1019.9 976.8
22 15.08 СЗ 3
{5}
н/о н/о +20.8 +11.1 54 +23 +23 комфорт 1019.9 976.8
23 15.08 С 4
{5}
н/о н/о +20.2 +12.0 59 +22 +22 комфорт 1020.3 977.1
00 16.08 С 4
{11}
н/о н/о +19.9 +12.0 60 +22 +22 комфорт 1020.3 977.1
01 16.08 СЗ 3
{5}
н/о н/о +19.8 +11.4 58 +21 +21 комфорт 1020.3 977.1
02 16.08 С 3
{5}
н/о н/о +19.3 +11.5 61 +21 +21 комфорт 1020.3 977.0
03 16.08 ЮВ 1
{5}
н/о н/о +17.6 +11.2 66 +19 +19 1020.0 976.4
04 16.08 ЮВ 1
{2}
н/о н/о +15.5 +10.5 72 +16 +16 1020.4 976.5
05 16.08 ЮВ 3
{4}
н/о н/о +14.8 +10.6 76 +14 +14 1020.1 976.1
06 16.08 Ю 2
{5}
н/о н/о +15.8 +10.4 70 +16 +16 1020.6 976.7 +14.8
07 16.08 ЮВ 2
{5}
н/о н/о +17.2 +10.6 65 +18 +18 1020.7 977.0
08 16.08 ЮВ 1
{4}
н/о н/о +18.5 +11.2 62 +20 +20 1020.2 976.8
09 16.08 С 1
{5}
н/о н/о +18.9 +11.4 62 +21 +21 комфорт 1019.8 976.4
10 16.08 З 2
{3}
н/о н/о +19.4 +11.3 59 +21 +21 комфорт 1018.7 975.5
11 16.08 СЗ 2
{3}
н/о н/о +20.4 +10.3 52 +23 +23 комфорт 1017.8 974.8
12 16.08 СЗ 3
{5}
н/о н/о +20.5 +12.9 62 +23 +23 комфорт 1017.4 974.4
13 16.08 СЗ 4
{5}
н/о н/о +21.5 +13.6 61 +24 +24 комфорт 1016.8 974.0
14 16.08 СЗ 6
{7}
н/о н/о +22.6 +13.4 56 +26 +26 жарко 1016.5 973.8
15 16.08 СЗ 4
{7}
н/о н/о +23.0 +13.5 55 +26 +26 жарко 1016.1 973.5
16 16.08 С 2
{4}
н/о н/о +23.0 +13.1 54 +26 +26 жарко 1015.8 973.2
17 16.08 З 2
{3}
н/о н/о +22.5 +14.1 59 +26 +26 жарко 1015.1 972.5
18 16.08 З 1
{7}
н/о н/о +22.4 +13.4 57 +25 +25 комфорт 1015.2 972.6 +23.1
19 16.08 Ю 1
{2}
н/о н/о +20.6 +13.4 63 +24 +24 комфорт 1016.0 973.1
20 16.08 ЮВ 2
{3}
н/о н/о +19.5 +12.2 63 +21 +21 комфорт 1016.5 973.4
21 16.08 ЮВ 3
{5}
н/о н/о +19.2 +12.5 65 +21 +21 комфорт 1016.3 973.1
22 16.08 ЮВ 3
{5}
н/о н/о +18.8 +12.9 69 +20 +20 1016.1 972.9
23 16.08 Ю 2
{5}
н/о н/о +18.4 +12.6 69 +19 +19 1016.6 973.3
00 17.08 В 2
{5}
н/о н/о +17.9 +11.7 67 +19 +19 1016.4 973.0
01 17.08 ЮВ 3
{6}
н/о н/о +17.9 +11.5 66 +18 +18 1015.9 972.6
02 17.08 ЮВ 2
{5}
н/о н/о +18.1 +11.3 64 +19 +19 1016.0 972.7
03 17.08 ЮВ 3
{6}
н/о н/о +17.9 +11.2 65 +18 +18 1015.7 972.4
04 17.08 ЮВ 2
{9}
н/о н/о +18.4 +10.6 60 +19 +19 1015.7 972.4
05 17.08 Ю 3
{5}
н/о н/о +18.6 +10.9 61 +19 +19 1015.9 972.7
06 17.08 ЮВ 3
{9}
н/о н/о +18.9 +10.3 57 +20 +20 1015.8 972.6 +17.9
07 17.08 ЮВ 3
{6}
н/о н/о +19.6 +10.3 55 +21 +21 комфорт 1015.9 972.8
08 17.08 Ю 3
{5}
н/о н/о +20.3 +10.5 53 +22 +22 комфорт 1015.9 972.9
09 17.08 СЗ 1
{6}
н/о н/о +20.4 +13.3 64 +24 +24 комфорт 1016.0 973.0
10 17.08 СЗ 2
{2}
н/о н/о +20.6 +13.8 65 +24 +24 комфорт 1015.6 972.7
11 17.08 З 1
{2}
н/о н/о +21.1 +13.6 62 +24 +24 комфорт 1015.1 972.3
12 17.08 СВ 1
{6}
н/о н/о +22.3 +13.6 58 +25 +25 комфорт 1014.3 971.7
13 17.08 ЮЗ 1
{2}
н/о н/о +24.0 +12.0 47 +26 +26 жарко 1013.3 971.0
14 17.08 СЗ 1
{2}
н/о н/о +24.2 +12.2 47 +26 +26 жарко 1013.1 970.8
15 17.08 СВ 1
{2}
н/о н/о +25.8 +10.2 37 +27 +27 жарко 1012.4 970.4
16 17.08 СЗ 1
{3}
н/о н/о +26.4 +11.1 38 +27 +27 жарко 1012.1 970.2
17 17.08 Ю 1
{2}
н/о н/о +25.8 +13.2 46 +28 +28 жарко 1012.0 970.0
18 17.08 ЮВ 2
{4}
н/о н/о +25.5 +12.9 46 +27 +27 жарко 1011.5 969.5 +26.9
19 17.08 ЮВ 3
{4}
н/о н/о +24.5 +13.3 50 +27 +27 жарко 1011.6 969.4
20 17.08 Ю 2
{5}
н/о н/о +24.5 +12.7 48 +26 +26 жарко 1011.6 969.4
21 17.08 Ю 1
{5}
н/о н/о +23.9 +13.5 52 +26 +26 жарко 1011.8 969.5
22 17.08 ЮВ 2
{2}
н/о н/о +22.4 +14.2 60 +26 +26 жарко 1012.3 969.8
23 17.08 Ю 2
{2}
н/о н/о +22.3 +14.0 59 +25 +25 комфорт 1012.5 970.0
00 18.08 ЮВ 2
{5}
н/о н/о +21.6 +14.2 63 +25 +25 комфорт 1012.5 969.9
01 18.08 ЮВ 2
{3}
н/о н/о +20.8 +13.8 64 +24 +24 комфорт 1012.7 969.9
02 18.08 ЮВ 2
{3}
н/о н/о +20.0 +13.8 67 +23 +23 комфорт 1012.6 969.7
03 18.08 В 1
{3}
н/о н/о +19.3 +13.7 70 +22 +22 комфорт 1012.4 969.4
04 18.08 ЮВ 1
{3}
н/о н/о +19.2 +12.7 66 +21 +21 комфорт 1012.2 969.2
05 18.08 Ю 2
{5}
н/о н/о +20.2 +11.5 57 +23 +23 комфорт 1011.6 968.8
06 18.08 ЮВ 2
{5}
н/о н/о +21.2 +11.3 53 +23 +23 комфорт 1011.7 969.0 +19.1
07 18.08 ЮВ 3
{6}
н/о н/о +22.8 +11.4 49 +25 +25 комфорт 1010.9 968.5
08 18.08 З 2
{9}
н/о н/о +22.4 +15.1 63 +26 +26 жарко 1010.7 968.3
09 18.08 З 3
{9}
н/о н/о +22.7 +15.9 65 +27 +27 душно 1010.7 968.3
10 18.08 З 3
{4}
н/о н/о +23.0 +17.5 71 +28 +28 душно 1011.0 968.6
11 18.08 З 2
{4}
н/о н/о +24.2 +15.3 58 +27 +27 жарко 1010.5 968.3
12 18.08 В 1
{9}
н/о н/о +25.4 +12.1 43 +27 +27 жарко 1010.0 968.0
13 18.08 СВ 3
{5}
н/о н/о +25.2 +15.3 54 +28 +28 жарко 1010.2 968.2
14 18.08 ЮЗ 1
{3}
н/о н/о +28.1 +13.2 40 +30 +30 жарко 1009.6 968.0
15 18.08 ЮЗ 1
{5}
н/о н/о +29.1 +13.1 37 +30 +30 жарко 1008.9 967.5
16 18.08 З 1
{3}
н/о н/о +26.4 +17.7 59 +31 +31 душно 1009.5 967.7
17 18.08 СВ 3
{6}
н/о н/о +26.8 +18.0 59 +31 +31 душно 1009.1 967.4
18 18.08 ЮВ 2
{6}
н/о н/о +26.8 +17.0 55 +31 +31 душно 1008.9 967.2 +29.1
19 18.08 ЮВ 2
{3}
н/о н/о +26.6 +16.3 53 +30 +30 душно 1009.2 967.4
20 18.08 З 3
{8}
н/о н/о +25.7 +17.7 61 +30 +30 душно 1010.4 968.5
21 18.08 СЗ 19
{25}
н/о н/о +22.1 +17.0 73 +27 +27 душно 1012.7 970.1
22 18.08 СВ 6
{24}
н/о н/о +19.9 +16.9 83 +22 +22 комфорт 1016.4 973.3
23 18.08 ЮВ 4
{8}
н/о н/о +18.4 +16.9 91 +19 +19 1016.9 973.6
00 19.08 ЮВ 6
{25}
н/о н/о +18.5 +17.2 92 +19 +19 1016.0 972.7
01 19.08 СЗ 1
{9}
н/о н/о +18.9 +17.3 90 +21 +21 комфорт 1016.0 972.8
02 19.08 Ю 4
{8}
н/о н/о +18.9 +17.2 90 +20 +20 1016.6 973.4
03 19.08 ЮВ 3
{9}
н/о н/о +18.5 +17.3 93 +19 +19 1017.5 974.2
04 19.08 В 2
{5}
н/о н/о +18.4 +16.8 90 +20 +20 1016.8 973.5
05 19.08 Ю 3
{5}
н/о н/о +18.7 +17.3 92 +20 +20 1017.2 973.9
06 19.08 ЮВ 3
{9}
н/о н/о +18.0 +16.9 93 +18 +18 1017.4 974.0 +18.1
07 19.08 ЮВ 3
{9}
н/о н/о +18.5 +16.8 90 +19 +19 1017.4 974.1
08 19.08 Ю 2
{10}
н/о н/о +19.9 +16.8 82 +23 +23 комфорт 1016.8 973.7
09 19.08 З 2
{10}
н/о н/о +20.2 +16.8 81 +24 +24 комфорт 1017.5 974.4
10 19.08 З 1
{3}
н/о н/о +20.6 +16.9 79 +25 +25 комфорт 1017.4 974.4
11 19.08 З 1
{2}
н/о н/о +20.8 +16.6 77 +26 +26 душно 1017.8 974.8
12 19.08 С 1
{10}
н/о н/о +21.1 +16.1 73 +24 +24 комфорт 1017.4 974.5
13 19.08 СЗ 1
{2}
н/о н/о +21.6 +15.9 70 +25 +25 комфорт 1017.6 974.7
14 19.08 СЗ 1
{3}
н/о н/о +22.3 +15.2 64 +26 +26 жарко 1017.5 974.8
15 19.08 С 1
{3}
н/о н/о +22.2 +16.0 68 +26 +26 душно 1017.5 974.7
16 19.08 З 1
{3}
н/о н/о +21.3 +17.4 78 +25 +25 комфорт 1017.6 974.7
17 19.08 ЮВ 2
{3}
н/о н/о +20.3 +18.0 87 +25 +25 комфорт 1018.3 975.2
18 19.08 ЮВ 3
{5}
н/о н/о +19.2 +18.0 93 +21 +21 комфорт 1018.5 975.2 +22.4
19 19.08 ЮВ 2
{5}
н/о н/о +19.1 +18.0 93 +22 +22 комфорт 1019.3 976.0
20 19.08 З 3
{6}
н/о н/о +19.1 +18.0 93 +21 +21 комфорт 1020.0 976.7
21 19.08 З 2
{6}
н/о н/о +19.4 +16.3 82 +22 +22 комфорт 1020.0 976.7
22 19.08 Ю 2
{3}
н/о н/о +18.4 +17.0 92 +20 +20 1020.5 977.0
23 19.08 СВ 1
{2}
н/о н/о +18.1 +16.9 93 +20 +20 1020.4 976.9
00 20.08 З 9
{13}
н/о н/о +18.6 +17.1 91 +19 +19 1020.4 977.0

 

Местоположение метеостанции Ле-Бувре (Швейцария): широта 46.40 долгота 6.87 высота над уровнем моря 375 м.

В архиве по умолчанию представлена погода в Ле-Бувре за последнюю неделю. Архивные данные за месяц целиком и за предыдущие месяцы, начиная с января 2011 года, Вы можете получить, выбрав интересующий диапазон дат из раскрывающегося списка и нажав кнопку "Ввод!".


*Определитесь, кто Вы:
робот инопланетянин человек

Внимание! Время в таблицах - всемирное. Для получения местного времени необходимо прибавить поправку, которая равна 1 ч.

Смотрите также архив погоды в соседних городах и на ближайших метеорологических станциях:

Погода в Монтрё-Кларане (Швейцария) (6 км)
Погода в Эгле (Швейцария) (9 км)
Погода в Коль де Моссе (Швейцария) (18 км)
Погода в Ороне (Швейцария) (19 км)
Погода на Молезоне (Швейцария) (20 км)
Погода в Пюли (Швейцария) (20 км)
Погода в Шато-Д`о (Швейцария) (23 км)
Погода в Лозанне (Швейцария) (25 км)
Погода на Ле-Дьяблере (Швейцария) (26 км)
Погода в Эвьоне (Швейцария) (27 км)

Пояснения к столбцам:

Ветер - указаны скорость ветра в м/с - средняя за 10 мин, порывы в срок и между сроками (в фигурных скобках) и направление, откуда дует ветер: С - северный, СВ - северо-восточный, В - восточный, ЮВ - юго-восточный, Ю - южный, ЮЗ - юго-западный, З - западный, СЗ - северо-западный.
Видимость - горизонтальная дальность видимости в метрах или километрах. При видимости от 1 до 10 км при отсутствии осадков обычно наблюдается дымка, при ухудшении видимости до 1 км и менее - туман. В сухую погоду видимость может ухудшаться дымом, пылью или мглою.
Явления - указаны атмосферные явления, наблюдавшиеся в срок или в последний час перед сроком; фигурными скобками обозначены явления, наблюдавшиеся между сроками (за 1-3 часа до срока); квадратными скобками обозначены град или гололедные отложения с указанием их диаметра в мм.
Облачность - указаны через наклонную черту общая и нижняя облачность в баллах и высота нижней границы облаков в метрах; квадратными скобками обозначены формы облаков: Ci - перистые, Cs - перисто-слоистые, Cc - перисто-кучевые, Ac - высококучевые, As - высокослоистые, Sc - слоисто-кучевые, Ns - слоисто-дождевые, Cu - кучевые, Cb - кучево-дождевые. Подробнее классификацию облаков см. в Атласе облаков (PDF).
T - Температура воздуха - температура, измеренная на высоте 2 м над землей.
Td - Температура точки росы - температура, при понижении до которой содержащийся в воздухе водяной пар достигнет насыщения.
f - Относительная влажность воздуха - влажноcть воздуха, измеренная на высоте 2 м над землей.
Te - Эффективная температура - температура, которую ощущает одетый по сезону человек в тени. Характеристика душности погоды. При расчете учитывается влияние влажности воздуха и скорости ветра на теплоощущения человека.
Tes - Эффективная температура на солнце - температура, которую ощущает человек, с поправкой на солнечный нагрев. Характеристика знойности погоды. Зависит от высоты солнца над горизонтом, облачности и скорости ветра. Ночью, в пасмурную погоду, а также при ветре 12 м/с и более поправка равна нулю.
P - Атмосферное давление - приведенное к уровню моря атмосферное давление.
Po - Атмосферное давление - измеренное на уровне метеостанции атмосферное давление.
Tmin - Минимальная температура - минимум температуры воздуха на высоте 2 м над землей.
Tmax - Максимальная температура - максимум температуры воздуха на высоте 2 м над землей.
R - Количество осадков - Количество выпавших осадков за период времени, мм. При наведении курсора мыши на число - период времени, за который выпало указанное количество осадков.
R24 - Количество осадков - Количество выпавших осадков за 24 часа, мм.
S - Снежный покров - Высота снежного покрова, см. При наведении курсора мыши на число - состояние снежного покрова и степень покрытия местности в баллах.